Visibility
15.0 15.0 15.0 15.0 15.0 15.0 15.0 15.0 15.0 15.0 15.0 15.0 15.0 15.0 15.0 15.0 15.0 15.0 15.0 15.0 15.0 15.0 15.0 15.0 15.0 15.0 15.0 15.0 15.0 15.0 15.0 15.0 15.0 15.0 15.0 15.0 15.0 15.0 15.0 15.0 15.0 15.0 15.0 15.0 15.0 15.0 15.0
15.0 15.0 15.0 15.0 15.0 15.0 15.0 15.0 15.0 15.0 15.0 15.0 15.0 15.0 15.0 15.0 15.0 15.0 15.0 15.0 15.0 15.0 15.0 15.0 15.0 15.0 15.0 15.0 15.0 15.0 15.0 15.0 15.0 15.0 15.0 15.0 15.0 15.0 15.0 15.0 15.0 15.0 15.0 15.0 15.0 15.0 15.0
15.0 15.0 15.0 15.0 15.0 15.0 15.0 15.0 15.0 15.0 15.0 15.0 15.0 15.0 15.0 15.0 15.0 15.0 15.0 15.0 15.0 15.0 15.0 15.0 15.0 15.0 15.0 15.0 15.0 15.0 15.0 15.0 15.0 15.0 15.0 15.0 15.0 15.0 15.0 15.0 15.0 15.0 15.0 15.0 15.0 15.0 15.0
15.0 15.0 15.0 15.0 15.0 15.0 15.0 15.0 15.0 15.0 15.0 15.0 15.0 15.0 15.0 15.0 15.0 15.0 15.0 15.0 15.0 15.0 15.0 15.0 15.0 15.0 15.0 15.0 15.0 15.0 15.0 15.0 15.0 15.0 15.0 15.0 15.0 15.0 15.0 15.0 15.0 15.0 15.0 15.0 15.0 15.0 15.0
15.0 15.0 15.0 15.0 15.0 15.0 15.0 15.0 15.0 15.0 15.0 15.0 15.0 15.0 15.0 15.0 15.0 15.0 15.0 15.0 15.0 15.0 15.0 15.0 15.0 15.0 15.0 15.0 15.0 15.0 15.0 15.0 15.0 15.0 15.0 15.0 15.0 15.0 15.0 15.0 15.0 15.0 15.0 15.0 15.0 15.0 15.0
15.0 15.0 15.0 15.0 15.0 15.0 15.0 15.0 15.0 15.0 15.0 15.0 15.0 15.0 15.0 15.0 15.0 15.0 15.0 15.0 15.0 15.0 15.0 15.0 15.0 15.0 15.0 15.0 15.0 15.0 15.0 15.0 15.0 15.0 15.0 15.0 15.0 15.0 15.0 15.0 15.0 15.0 15.0 15.0 15.0 15.0 15.0
15.0 15.0 15.0 15.0 15.0 15.0 15.0 15.0 15.0 15.0 15.0 15.0 15.0 15.0 15.0 15.0 15.0 15.0 15.0 15.0 15.0 15.0 15.0 15.0 15.0 15.0 15.0 15.0 15.0 15.0 15.0 15.0 15.0 15.0 15.0 15.0 15.0 15.0 15.0 15.0 15.0 15.0 15.0 15.0 15.0 15.0 15.0
15.0 15.0 15.0 15.0 15.0 15.0 15.0 15.0 15.0 15.0 15.0 15.0 15.0 15.0 15.0 15.0 15.0 15.0 15.0 15.0 15.0 15.0 15.0 15.0 15.0 15.0 15.0 15.0 15.0 15.0 15.0 15.0 15.0 15.0 15.0 15.0 15.0 15.0 15.0 15.0 15.0 15.0 15.0 15.0 15.0 15.0 15.0
15.0 15.0 15.0 15.0 14.2 15.0 15.0 15.0 15.0 15.0 15.0 15.0 15.0 15.0 15.0 15.0 15.0 15.0 15.0 15.0 15.0 15.0 15.0 15.0 15.0 15.0 15.0 15.0 15.0 15.0 15.0 15.0 15.0 15.0 15.0 15.0 15.0 15.0 15.0 15.0 15.0 15.0 15.0 15.0 15.0 15.0 15.0
15.0 15.0 15.0 15.0 15.0 15.0 15.0 15.0 15.0 15.0 14.1 15.0 15.0 15.0 15.0 15.0 15.0 15.0 15.0 15.0 15.0 15.0 3.4 15.0 15.0 15.0 15.0 15.0 15.0 15.0 15.0 15.0 15.0 15.0 15.0 15.0 15.0 15.0 15.0 15.0 15.0 15.0 15.0 15.0 15.0 15.0 15.0
15.0 15.0 13.9 14.7 15.0 15.0 15.0 15.0 15.0 15.0 15.0 15.0 15.0 15.0 15.0 15.0 15.0 15.0 15.0 15.0 15.0 15.0 15.0 15.0 15.0 15.0 15.0 15.0 15.0 15.0 15.0 15.0 15.0 15.0 15.0 15.0 15.0 15.0 15.0 15.0 15.0 15.0 15.0 15.0 15.0 15.0 15.0
15.0 15.0 15.0 14.6 15.0 15.0 15.0 15.0 15.0 15.0 15.0 15.0 15.0 15.0 15.0 15.0 15.0 15.0 15.0 15.0 14.0 5.5 15.0 15.0 15.0 15.0 15.0 15.0 15.0 15.0 15.0 15.0 15.0 15.0 15.0 15.0 15.0 15.0 15.0 15.0 15.0 15.0 15.0 15.0 15.0 15.0 15.0
15.0 12.2 7.8 14.8 15.0 15.0 15.0 15.0 14.7 15.0 15.0 13.9 15.0 15.0 15.0 15.0 15.0 15.0 15.0 15.0 15.0 15.0 15.0 15.0 15.0 15.0 15.0 15.0 15.0 15.0 15.0 15.0 15.0 15.0 15.0 15.0 15.0 15.0 15.0 15.0 15.0 15.0 15.0 15.0 15.0 15.0 15.0
9.2 13.9 15.0 11.7 15.0 15.0 15.0 14.6 15.0 15.0 14.1 15.0 13.4 15.0 15.0 15.0 15.0 15.0 15.0 15.0 15.0 15.0 15.0 15.0 15.0 15.0 15.0 15.0 15.0 15.0 15.0 15.0 15.0 15.0 15.0 15.0 15.0 15.0 15.0 15.0 15.0 15.0 15.0 15.0 15.0 15.0 15.0
13.8 14.7 7.9 12.7 15.0 12.0 10.1 9.7 15.0 14.0 14.8 14.0 15.0 13.7 15.0 15.0 15.0 15.0 15.0 15.0 15.0 15.0 15.0 15.0 15.0 15.0 15.0 15.0 15.0 15.0 15.0 15.0 15.0 15.0 15.0 15.0 15.0 15.0 15.0 15.0 15.0 15.0 15.0 15.0 15.0 15.0 15.0
14.6 8.1 10.2 9.3 14.3 15.0 15.0 15.0 15.0 12.8 15.0 10.1 14.7 14.7 15.0 15.0 14.7 14.8 13.1 15.0 15.0 15.0 15.0 15.0 15.0 15.0 15.0 15.0 15.0 15.0 15.0 15.0 15.0 15.0 15.0 15.0 15.0 15.0 15.0 15.0 15.0 15.0 15.0 15.0 15.0 15.0 15.0
15.0 14.8 15.0 14.5 13.9 8.4 13.5 15.0 14.7 13.3 15.0 13.0 10.8 1.7 15.0 15.0 13.4 4.2 10.1 15.0 15.0 15.0 15.0 15.0 15.0 15.0 15.0 15.0 15.0 15.0 15.0 15.0 15.0 15.0 15.0 15.0 15.0 15.0 15.0 15.0 15.0 15.0 15.0 15.0 15.0 15.0 15.0
15.0 15.0 14.1 14.6 14.8 10.6 8.3 7.5 9.3 14.7 12.1 11.4 7.8 0.2 13.2 15.0 1.9 2.4 10.8 15.0 15.0 15.0 15.0 15.0 15.0 15.0 15.0 15.0 15.0 15.0 15.0 15.0 15.0 15.0 15.0 15.0 15.0 15.0 15.0 15.0 15.0 15.0 15.0 15.0 15.0 15.0 15.0
15.0 15.0 7.4 12.4 15.0 13.8 15.0 8.3 15.0 15.0 12.1 8.2 0.1 5.6 14.4 5.5 1.5 3.7 5.7 10.3 15.0 15.0 15.0 15.0 15.0 15.0 15.0 15.0 15.0 15.0 15.0 15.0 15.0 15.0 15.0 15.0 15.0 15.0 15.0 15.0 15.0 15.0 15.0 15.0 15.0 15.0 15.0
15.0 15.0 13.7 8.1 15.0 7.9 15.0 8.3 13.3 15.0 13.5 7.2 7.0 0.5 5.8 6.8 4.3 2.9 5.7 12.3 15.0 15.0 15.0 15.0 15.0 15.0 15.0 15.0 15.0 15.0 15.0 15.0 15.0 15.0 15.0 15.0 15.0 15.0 15.0 15.0 15.0 15.0 15.0 15.0 15.0 15.0 15.0
12.7 7.9 11.1 15.0 8.2 8.4 8.0 8.3 14.9 14.2 10.0 2.3 0.0 1.7 6.4 3.2 1.6 1.9 1.0 4.4 8.2 2.8 14.4 15.0 15.0 15.0 15.0 15.0 15.0 15.0 15.0 15.0 15.0 15.0 15.0 15.0 15.0 15.0 15.0 15.0 15.0 15.0 15.0 15.0 15.0 15.0 15.0
15.0 11.9 15.0 15.0 7.9 10.0 14.9 15.0 15.0 8.7 10.6 0.8 0.0 0.9 9.3 15.0 3.2 9.2 1.3 1.1 13.6 3.7 7.6 6.4 15.0 15.0 15.0 15.0 15.0 15.0 15.0 15.0 15.0 15.0 15.0 15.0 14.9 15.0 15.0 15.0 15.0 15.0 15.0 15.0 15.0 15.0 15.0
15.0 15.0 15.0 15.0 15.0 12.0 9.9 14.6 15.0 13.2 7.2 0.0 0.1 6.6 10.7 14.2 13.0 6.9 11.0 15.0 4.3 15.0 13.5 15.0 15.0 11.5 6.8 15.0 13.7 15.0 15.0 15.0 15.0 15.0 15.0 15.0 9.8 14.4 15.0 15.0 15.0 15.0 15.0 15.0 15.0 15.0 15.0
15.0 15.0 13.7 15.0 15.0 15.0 15.0 15.0 15.0 14.1 6.3 7.3 3.9 3.3 1.0 3.5 3.9 13.2 5.5 2.4 2.4 10.2 11.4 9.9 14.0 3.4 7.0 15.0 15.0 15.0 15.0 15.0 15.0 15.0 15.0 13.7 13.6 12.1 15.0 15.0 15.0 15.0 15.0 15.0 15.0 15.0 15.0
15.0 15.0 14.1 14.4 14.4 14.5 15.0 15.0 12.3 13.8 9.5 7.1 11.9 14.9 4.5 1.2 5.5 3.9 9.1 6.2 12.2 13.4 13.8 11.5 14.9 12.4 14.3 2.2 0.4 6.7 9.7 4.9 14.1 15.0 15.0 15.0 6.4 9.1 5.8 15.0 15.0 15.0 15.0 15.0 15.0 15.0 15.0
15.0 15.0 14.5 13.5 14.9 15.0 15.0 15.0 15.0 15.0 11.0 7.5 11.5 14.9 6.5 1.6 9.7 15.0 15.0 14.6 12.8 8.5 3.9 15.0 15.0 14.1 6.4 0.0 0.0 5.9 0.3 2.7 4.4 14.2 15.0 14.8 13.5 7.6 6.0 12.7 15.0 15.0 15.0 15.0 15.0 15.0 6.5
14.3 15.0 11.2 15.0 14.1 12.5 12.9 14.4 10.5 14.9 11.5 5.9 15.0 10.9 4.5 1.2 15.0 13.1 15.0 15.0 15.0 14.8 0.9 5.1 7.5 0.1 1.5 0.0 0.2 2.0 2.3 9.1 14.2 13.3 14.6 7.6 9.9 2.4 5.3 5.3 14.4 15.0 15.0 15.0 9.5 12.5 15.0
15.0 14.6 14.9 14.1 11.3 10.4 9.3 6.3 4.7 6.5 7.6 6.0 8.5 14.1 12.1 4.4 15.0 15.0 15.0 2.2 15.0 12.0 1.2 1.3 1.1 5.7 0.0 0.0 1.6 1.2 3.3 12.2 15.0 15.0 5.1 13.6 7.9 5.0 4.7 0.3 2.2 15.0 15.0 5.4 9.7 15.0 15.0
15.0 15.0 15.0 9.1 13.1 14.8 14.9 12.0 4.9 5.6 9.4 5.7 0.2 15.0 15.0 3.5 14.2 15.0 15.0 15.0 15.0 14.3 6.3 2.9 0.8 0.1 11.3 0.3 11.5 13.9 3.9 11.4 15.0 15.0 15.0 14.7 14.5 13.9 14.6 15.0 15.0 15.0 15.0 15.0 15.0 15.0 15.0